Weather History for Ann Arbor, MI

Change the Weather History Date:

Wednesday, January 22, 2014

  Actual Average Record
Temperature  
Mean Temperature -4 °F -  
Max Temperature 10 °F 26 °F 50 °F (2002)
Min Temperature -17 °F 8 °F -17 °F (2014)
Degree Days  
Heating Degree Days 68    
Moisture  
Dew Point 0 °F    
Average Humidity 78    
Maximum Humidity 88    
Minimum Humidity 60    
Precipitation  
Precipitation 0.00 in - - ()
Sea Level Pressure  
Sea Level Pressure 30.00 in    
Wind  
Wind Speed 6 mph (SSW)    
Max Wind Speed 13 mph    
Max Gust Speed 18 mph    
Visibility 4 miles    
Events Snow    
Averages and records for this station are not official NWS values.
T = Trace of Precipitation, MM = Missing Value Source: NWS Daily Summary

Daily Weather History Graph

Daily Weather History Graph

Search for Another Location

Airport:

Trip Planner

Search our weather history database for the weather conditions in past years. The results will help you decide how hot, cold, wet, or windy it might be!

Date:

Astronomy

Jan. 22, 2014 Rise Set
Actual Time 7:56 AM EST 5:36 PM EST
Civil Twilight 7:26 AM EST 6:07 PM EST
Nautical Twilight 6:52 AM EST 6:41 PM EST
Astronomical Twilight 6:19 AM EST 7:14 PM EST
Moon No Moon Rise 10:50 AM EST (1/22)
Length of Visible Light 10h 40m
Length of Day
9h 39m
Waning Gibbous, 65% of the Moon is Illuminated
Jan 22
Waning Gibbous
Jan 24
Last Quarter
Jan 30
New
Feb 6
First Quarter
Feb 14
Full

Hourly Weather History & Observations

Time (EST) Temp. Windchill Dew Point Humidity Pressure Visibility Wind Dir Wind Speed Gust Speed Precip Events Conditions
12:53 AM -13.0 °F - -18.0 °F 78% 30.23 in 10.0 mi Calm Calm - N/A   Clear
1:53 AM -13.0 °F - -18.9 °F 75% 30.21 in 10.0 mi Calm Calm - N/A   Clear
2:53 AM -15.0 °F - -20.9 °F 75% 30.20 in 10.0 mi Calm Calm - N/A   Clear
3:53 AM -15.0 °F -25.0 °F -18.9 °F 82% 30.19 in 10.0 mi WSW 3.5 mph - N/A   Clear
4:53 AM -17.0 °F -27.2 °F -20.9 °F 82% 30.19 in 10.0 mi WSW 3.5 mph - N/A   Clear
5:53 AM -11.0 °F - -17.0 °F 75% 30.17 in 10.0 mi Calm Calm - N/A   Overcast
6:53 AM -6.0 °F - -11.9 °F 75% 30.14 in 10.0 mi Calm Calm - N/A   Overcast
7:53 AM -2.9 °F - -8.0 °F 79% 30.14 in 10.0 mi Calm Calm - N/A   Overcast
8:53 AM -0.0 °F - -6.0 °F 76% 30.13 in 10.0 mi Calm Calm - N/A   Overcast
9:53 AM 1.9 °F -11.8 °F -7.1 °F 66% 30.13 in 10.0 mi SSW 8.1 mph - N/A   Overcast
10:53 AM 3.9 °F -12.2 °F -5.1 °F 66% 30.12 in 10.0 mi SSW 11.5 mph - N/A   Overcast
11:03 AM 3.2 °F -10.3 °F -5.8 °F 66% 30.05 in 10.0 mi SSW 8.1 mph - N/A   Overcast
11:53 AM 6.1 °F -9.5 °F -5.1 °F 60% 30.10 in 10.0 mi SSW 11.5 mph - N/A   Overcast
12:34 PM 6.8 °F -8.6 °F -4.0 °F 61% 30.00 in 10.0 mi SSW 11.5 mph - N/A   Overcast
12:53 PM 7.0 °F -9.1 °F -2.9 °F 64% 30.06 in 2.0 mi South 12.7 mph - 0.00 in Snow Light Snow
12:58 PM 6.8 °F -9.3 °F -2.2 °F 67% 29.99 in 1.5 mi South 12.7 mph - 0.00 in Snow Light Snow
1:07 PM 6.8 °F -7.8 °F -0.4 °F 72% 29.98 in 1.2 mi South 10.4 mph - 0.00 in Snow Light Snow
1:32 PM 6.8 °F -7.8 °F -0.4 °F 72% 29.97 in 1.8 mi SSW 10.4 mph - 0.00 in Snow Light Snow
1:53 PM 8.1 °F -6.2 °F 1.0 °F 73% 30.02 in 1.0 mi SSW 10.4 mph - 0.00 in Snow Light Snow
2:12 PM 8.6 °F -7.0 °F 1.4 °F 73% 29.94 in 2.0 mi SSW 12.7 mph - 0.00 in Snow Light Snow
2:16 PM 8.6 °F -7.0 °F 1.4 °F 73% 29.94 in 2.5 mi SSW 12.7 mph - 0.00 in Snow Light Snow
2:53 PM 9.0 °F -5.1 °F 3.0 °F 77% 30.01 in 1.5 mi South 10.4 mph - 0.00 in Snow Light Snow
2:56 PM 8.6 °F -6.3 °F 3.2 °F 79% 29.93 in 1.0 mi South 11.5 mph - 0.00 in Snow Light Snow
3:06 PM 8.6 °F -6.3 °F 3.2 °F 79% 29.93 in 1.0 mi South 11.5 mph - 0.00 in Snow Light Snow
3:38 PM 10.4 °F -2.4 °F 3.2 °F 73% 29.92 in 1.0 mi South 9.2 mph - 0.00 in Snow Light Snow
3:53 PM 10.0 °F -2.9 °F 3.9 °F 76% 29.99 in 1.0 mi SSW 9.2 mph - 0.00 in Snow Light Snow
4:21 PM 10.4 °F -3.3 °F 3.2 °F 73% 29.93 in 1.5 mi South 10.4 mph - 0.00 in Snow Light Snow
4:32 PM 10.4 °F -4.1 °F 5.0 °F 79% 29.93 in 1.0 mi South 11.5 mph - 0.00 in Snow Light Snow
4:41 PM 10.4 °F -2.4 °F 5.0 °F 79% 29.93 in 0.8 mi South 9.2 mph - 0.00 in Snow Light Snow
4:50 PM 10.4 °F -4.1 °F 3.2 °F 73% 29.93 in 1.5 mi South 11.5 mph 18.4 mph 0.00 in Snow Light Snow
4:53 PM 10.0 °F -3.7 °F 3.9 °F 76% 30.00 in 1.5 mi South 10.4 mph 18.4 mph 0.00 in Snow Light Snow
5:00 PM 10.4 °F -2.4 °F 5.0 °F 79% 29.93 in 1.2 mi SSW 9.2 mph - 0.00 in Snow Light Snow
5:32 PM 10.4 °F -4.1 °F 5.0 °F 79% 29.93 in 1.5 mi South 11.5 mph - 0.00 in Snow Light Snow
5:42 PM 10.4 °F -2.4 °F 5.0 °F 79% 29.93 in 1.2 mi South 9.2 mph - 0.00 in Snow Light Snow
5:53 PM 10.0 °F -3.7 °F 5.0 °F 80% 29.99 in 1.5 mi South 10.4 mph - 0.00 in Snow Light Snow
6:03 PM 10.4 °F -4.1 °F 5.0 °F 79% 29.93 in 2.5 mi South 11.5 mph - 0.00 in Snow Light Snow
6:45 PM 10.4 °F -0.4 °F 5.0 °F 79% 29.94 in 1.5 mi South 6.9 mph - 0.00 in Snow Light Snow
6:53 PM 10.0 °F -1.9 °F 5.0 °F 80% 30.01 in 1.5 mi SSW 8.1 mph - 0.00 in Snow Light Snow
7:53 PM 10.0 °F -2.9 °F 6.1 °F 84% 29.99 in 2.0 mi SSW 9.2 mph - 0.00 in Snow Light Snow
8:00 PM 10.4 °F -1.5 °F 6.8 °F 85% 29.93 in 1.2 mi South 8.1 mph - 0.00 in Snow Light Snow
8:15 PM 10.4 °F 0.8 °F 6.8 °F 85% 29.92 in 1.5 mi South 5.8 mph - 0.00 in Snow Light Snow
8:26 PM 10.4 °F -0.4 °F 6.8 °F 85% 29.93 in 3.0 mi South 6.9 mph - 0.00 in Snow Light Snow
8:45 PM 10.4 °F -0.4 °F 6.8 °F 85% 29.92 in 2.5 mi South 6.9 mph - 0.00 in Snow Light Snow
8:53 PM 10.0 °F -1.9 °F 6.1 °F 84% 29.98 in 2.5 mi South 8.1 mph - 0.00 in Snow Light Snow
9:09 PM 10.4 °F -0.4 °F 6.8 °F 85% 29.92 in 3.0 mi South 6.9 mph - 0.00 in Snow Light Snow
9:29 PM 10.4 °F 2.2 °F 6.8 °F 85% 29.92 in 3.0 mi SSW 4.6 mph - 0.00 in Snow Light Snow
9:36 PM 10.4 °F 0.8 °F 6.8 °F 85% 29.92 in 2.0 mi SW 5.8 mph - 0.00 in Snow Light Snow
9:53 PM 9.0 °F 0.6 °F 6.1 °F 88% 29.97 in 4.0 mi SSW 4.6 mph - 0.00 in Snow Light Snow
10:07 PM 8.6 °F 0.1 °F 5.0 °F 85% 29.92 in 4.0 mi SSW 4.6 mph - 0.00 in Snow Light Snow
10:51 PM 8.6 °F 2.0 °F 5.0 °F 85% 29.91 in 1.8 mi SSW 3.5 mph - 0.00 in Snow Light Snow
10:53 PM 9.0 °F 2.4 °F 5.0 °F 84% 29.97 in 1.5 mi SSW 3.5 mph - 0.00 in Snow Light Snow
11:22 PM 8.6 °F 2.0 °F 5.0 °F 85% 29.92 in 2.5 mi SSW 3.5 mph - 0.00 in Snow Light Snow
11:40 PM 8.6 °F 0.1 °F 5.0 °F 85% 29.92 in 3.0 mi SSW 4.6 mph - 0.00 in Snow Light Snow
11:53 PM 8.1 °F 1.4 °F 5.0 °F 87% 29.98 in 3.0 mi SSW 3.5 mph - 0.00 in Snow Light Snow